Observations for Trim Patrick St
| Time | AQI | Temp °C | Hum % | Pres Pa | CO μg/m³ | H₂S μg/m³ | NO μg/m³ | NO₂ μg/m³ | O₃ μg/m³ | SO₂ μg/m³ | PM1 μg/m³ | PM2.5 μg/m³ | PM10 μg/m³ |
|---|---|---|---|---|---|---|---|---|---|---|---|---|---|
| Saturday 1 August 2026 | |||||||||||||
| 13:07 | 2 | 25.5 | 34 | 68,939 | 0 | 3.44 | 1.89 | 9.91 | 85.8 | 10.17 | 3.71 | 10.58 | 11.64 |
| 13:06 | 2 | 25.6 | 35 | 68,930 | 0 | 3.08 | 1.79 | 9.77 | 76.63 | 9.67 | 4.57 | 10.53 | 11.59 |
| 13:05 | 2 | 25.6 | 35 | 68,920 | 0 | 3.91 | 1.62 | 11.81 | 86.77 | 10.03 | 5.43 | 12.12 | 13.33 |
| 13:03 | 2 | 25.7 | 35 | 68,920 | 0 | 4.86 | 1.41 | 10.48 | 101.79 | 10.64 | 7.14 | 14.53 | 15.98 |
| 13:02 | 2 | 25.8 | 35 | 68,935 | 0 | 3.31 | 1.52 | 9.79 | 72.12 | 10.63 | 5.43 | 12.14 | 13.36 |
| 13:01 | 2 | 25.8 | 35 | 68,957 | 0 | 2.54 | 1.57 | 10.24 | 90.01 | 9.82 | 6.29 | 13.75 | 15.13 |
| 12:53 | 2 | 26.2 | 34 | 68,995 | 0 | 5.49 | 1.92 | 11.6 | 104.13 | 11.37 | 8.86 | 18.57 | 20.43 |
| 12:52 | 2 | 26.3 | 34 | 68,975 | 0 | 1.92 | 1.87 | 13.57 | 102.6 | 10.61 | 9.71 | 19.36 | 21.3 |
| 12:51 | 2 | 26.3 | 34 | 68,979 | 0 | 2.05 | 1.95 | 10.05 | 71.39 | 11.3 | 8 | 17.83 | 19.61 |
| 12:50 | 1 | 26.4 | 35 | 68,983 | 0 | 2.98 | 2.17 | 10.66 | 81.56 | 10.9 | 8.86 | 19.32 | 21.25 |
| 12:49 | 1 | 26.4 | 35 | 69,008 | 0 | 4.1 | 2.12 | 15.11 | 95.73 | 11.1 | 7.14 | 15.32 | 16.85 |
| 12:48 | 2 | 26.5 | 35 | 69,021 | 0 | 0 | 2.09 | 10.7 | 101.94 | 10.83 | 7.14 | 14.55 | 16 |
| 12:47 | 2 | 26.5 | 34 | 68,999 | 0 | 0 | 2.16 | 9.51 | 70.81 | 10.61 | 7.14 | 13.81 | 15.19 |
| 12:46 | 2 | 26.5 | 34 | 69,006 | 0 | 0 | 2.22 | 9.98 | 89.92 | 10.08 | 7.14 | 15.42 | 16.96 |
| 12:45 | 2 | 26.5 | 34 | 69,012 | 0 | 3.56 | 2.1 | 12.8 | 90.43 | 10.26 | 7.14 | 14.56 | 16.02 |
| 12:44 | 1 | 26.4 | 34 | 69,023 | 0 | 4.52 | 2.12 | 16.75 | 106.42 | 10.82 | 8 | 17.02 | 18.73 |
| 12:43 | 2 | 26.4 | 35 | 69,035 | 0 | 0 | 2.06 | 8.46 | 74.53 | 9.5 | 9.71 | 17.67 | 19.43 |
| 12:42 | 2 | 26.4 | 34 | 69,043 | 0 | 0 | 2.18 | 10.23 | 72.73 | 10.45 | 7.14 | 15.39 | 16.93 |
| 12:41 | 1 | 26.4 | 36 | 69,031 | 0 | 2.2 | 1.94 | 9.91 | 85.35 | 11.75 | 5.43 | 12.09 | 13.3 |
| 12:40 | 1 | 26.5 | 34 | 69,045 | 0 | 0 | 2.17 | 10.2 | 72.01 | 10.54 | 6.29 | 12.21 | 13.43 |